Bismarck, ND

2:31 PM CDT on May 25, 2018 (GMT -0500)
Bismarck Municipal

Weather History for KBIS - December, 2011

Change the Weather History Date:

Friday, December 30, 2011

  Actual Average Record
Temperature  
Mean Temperature 34 °F 13 °F  
Max Temperature 39 °F 23 °F 49 °F (1890)
Min Temperature 29 °F 3 °F -37 °F (1990)
Degree Days  
Heating Degree Days 31 52  
Month to date heating degree days 1198 1462  
Since 1 July heating degree days 2932 3448  
Cooling Degree Days 0 0  
Month to date cooling degree days 0 0  
Year to date cooling degree days 425 520  
Moisture  
Dew Point 28 °F    
Average Humidity 85    
Maximum Humidity 92    
Minimum Humidity 78    
Precipitation  
Precipitation 0.02 in 0.01 in 0.72 in (2006)
Month to date precipitation 0.28 0.47  
Year to date precipitation 23.03 17.83  
Snow  
Snow T in - 10.40 in (1918)
Month to date snowfall 3.3  
Since 1 July snowfall 3.9  
Snow Depth 0.00 in    
Sea Level Pressure  
Sea Level Pressure 29.69 in    
Wind  
Wind Speed 12 mph (West)    
Max Wind Speed 23 mph    
Max Gust Speed 44 mph    
Visibility 8 miles    
Events Rain , Snow    
T = Trace of Precipitation, MM = Missing Value Source: NWS Daily Summary

Daily Weather History Graph

Daily Weather History Graph

Search for Another Location

Airport or City:

Astronomy

Dec. 30, 2011 Rise Set
Actual Time 8:27 AM CST 5:03 PM CST
Civil Twilight 7:52 AM CST 5:38 PM CST
Nautical Twilight 7:14 AM CST 6:17 PM CST
Astronomical Twilight 6:37 AM CST 6:53 PM CST
Moon 11:23 AM CST (12/30) No Moon Set
Length of Visible Light 9h 45m
Length of Day
8h 35m
Waxing Crescent, 36% of the Moon is Illuminated
Dec 30
Waxing Crescent
Jan 1
First Quarter
Jan 9
Full
Jan 16
Last Quarter
Jan 23
New

Hourly Weather History & Observations

Time (CST) Temp. Windchill Dew Point Humidity Pressure Visibility Wind Dir Wind Speed Gust Speed Precip Events Conditions
12:37 AM 37.4 °F 29.3 °F 33.8 °F 87% 29.50 in 10.0 mi WNW 12.7 mph 20.7 mph N/A   Overcast
12:52 AM 39.0 °F 30.3 °F 34.0 °F 82% 29.55 in 10.0 mi WNW 16.1 mph - N/A   Overcast
1:33 AM 37.4 °F 30.8 °F 33.8 °F 87% 29.53 in 10.0 mi WNW 9.2 mph - 0.02 in Rain Light Rain
1:52 AM 36.0 °F 27.1 °F 33.1 °F 89% 29.59 in 10.0 mi WNW 13.8 mph 23.0 mph 0.02 in   Overcast
2:42 AM 35.6 °F 25.5 °F 30.2 °F 81% 29.58 in 9.0 mi NW 17.3 mph 32.2 mph N/A   Overcast
2:52 AM 36.0 °F 26.3 °F 30.9 °F 82% 29.64 in 9.0 mi NW 16.1 mph 27.6 mph N/A   Overcast
3:33 AM 33.8 °F 25.3 °F 30.2 °F 87% 29.62 in 6.0 mi NW 11.5 mph - N/A Snow Light Snow
3:52 AM 34.0 °F 22.4 °F 28.9 °F 82% 29.67 in 10.0 mi NW 20.7 mph 27.6 mph 0.00 in   Overcast
4:52 AM 32.0 °F 19.2 °F 27.0 °F 82% 29.71 in 9.0 mi NW 23.0 mph 40.3 mph 0.00 in   Overcast
5:52 AM 30.9 °F 19.8 °F 26.1 °F 82% 29.75 in 10.0 mi NW 16.1 mph 28.8 mph 0.00 in   Overcast
6:45 AM 30.2 °F 18.5 °F 26.6 °F 86% 29.72 in 10.0 mi NNW 17.3 mph 24.2 mph N/A   Overcast
6:52 AM 30.0 °F 18.3 °F 26.1 °F 85% 29.78 in 10.0 mi NW 17.3 mph 25.3 mph N/A   Overcast
7:52 AM 30.0 °F 18.3 °F 25.0 °F 82% 29.80 in 10.0 mi NW 17.3 mph - N/A   Overcast
8:52 AM 28.9 °F 20.4 °F 24.1 °F 82% 29.82 in 10.0 mi NNW 9.2 mph 19.6 mph N/A   Overcast
9:52 AM 28.9 °F 19.2 °F 24.1 °F 82% 29.83 in 10.0 mi NNW 11.5 mph - N/A   Overcast
10:52 AM 30.0 °F 24.1 °F 25.0 °F 82% 29.84 in 10.0 mi NNW 5.8 mph - N/A   Overcast
11:52 AM 30.2 °F 23.4 °F 24.8 °F 80% 29.77 in 10.0 mi WNW 6.9 mph - N/A   Overcast
12:19 PM 30.2 °F 24.3 °F 26.6 °F 86% 29.76 in 10.0 mi NNW 5.8 mph - N/A   Overcast
12:52 PM 30.0 °F 23.2 °F 26.1 °F 85% 29.80 in 8.0 mi WNW 6.9 mph - N/A   Overcast
1:52 PM 30.9 °F 27.5 °F 27.0 °F 85% 29.78 in 6.0 mi SSW 3.5 mph - N/A   Overcast
2:52 PM 30.9 °F 27.5 °F 28.9 °F 92% 29.79 in 4.0 mi SSW 3.5 mph - N/A   Overcast
3:52 PM 32.0 °F 26.4 °F 28.9 °F 88% 29.77 in 5.0 mi SSE 5.8 mph - N/A   Overcast
4:52 PM 30.9 °F 22.8 °F 28.9 °F 92% 29.76 in 5.0 mi SE 9.2 mph - N/A   Overcast
5:52 PM 32.0 °F 24.8 °F 28.9 °F 88% 29.74 in 7.0 mi SE 8.1 mph - N/A   Overcast
6:52 PM 30.9 °F 22.8 °F 28.9 °F 92% 29.72 in 6.0 mi SE 9.2 mph - N/A   Overcast
7:43 PM 30.2 °F 21.9 °F 28.4 °F 93% 29.64 in 5.0 mi SE 9.2 mph - N/A   Overcast
7:52 PM 30.9 °F 21.7 °F 28.9 °F 92% 29.69 in 5.0 mi SE 11.5 mph - N/A   Overcast
8:35 PM 30.2 °F 20.2 °F 28.4 °F 93% 29.62 in 5.0 mi SE 12.7 mph - N/A   Overcast
8:48 PM 30.2 °F 20.2 °F 28.4 °F 93% 29.61 in 6.0 mi SSE 12.7 mph - N/A   Overcast
8:52 PM 30.9 °F 22.2 °F 28.9 °F 92% 29.68 in 6.0 mi SSE 10.4 mph - N/A   Overcast
9:14 PM 30.2 °F 21.9 °F 28.4 °F 93% 29.60 in 6.0 mi SSE 9.2 mph - N/A   Overcast
9:27 PM 30.2 °F 21.9 °F 28.4 °F 93% 29.59 in 7.0 mi SSE 9.2 mph - N/A   Scattered Clouds
9:52 PM 30.9 °F 20.7 °F 28.9 °F 92% 29.65 in 8.0 mi SSE 13.8 mph - N/A   Mostly Cloudy
10:52 PM 30.9 °F 22.8 °F 28.9 °F 92% 29.63 in 8.0 mi SSE 9.2 mph - N/A   Overcast
11:52 PM 30.9 °F 23.5 °F 28.9 °F 92% 29.61 in 8.0 mi SE 8.1 mph - N/A   Overcast